STARLINK-2492 (48149 NORAD) Tracking and Keplerian Element Data

This shows tracking and keplerian element data for the satellite.

Feedback or suggestion? Click here.




ElementValue
Catalog48149
NameSTARLINK-2492
Epoch Orbit198
Epoch Day173.91668981
Epoch Year2021
RAAN321.8258
Inclination53.0459
Eccentricity0.0001131
Argument of Perigee64.4652
Mean Anonmoly250.4215
Mean Motion15.61877983
Decay Rate-0.01101873
L11 48149U 21027BK 21173.91668981 -.01101873 00000-0 -13720-1 0 9997
L22 48149 53.0459 321.8258 0001131 64.4652 250.4215 15.61877983 1988

Live tracking and technical data element details for STARLINK-2492 (NORAD 48149). STARLINK-2492 can be tracked NOW for your location showing map with azimuth and elevation plus other details from your city location.

Track the satellite on the map from your city or location and see movement details for azimuth, elevation, latitude, longitude, range, height, and movement on the map or in text.







IsCatalogInMostPopularTable: catalog: 48149, numindb: 35
Update: records affected: 1



GetName: 48149 STARLINK-2492

Hit Count: updated at: Thu, 24 Jun 2021 04:04:47 GMT